Temperature
11 11 11 11 12 12 12 12 13 13 13 13 13 14 14 14 14 14 14 14 14 14 14 14 14 14 14 14 14 14 14 14 14 14 14 14 14 14 14 14 14 14 14
11 11 11 11 11 12 12 12 13 13 13 13 13 13 13 13 13 13 13 13 13 14 14 14 14 14 14 14 14 14 14 14 14 14 14 14 14 14 14 14 14 14 14
10 11 11 11 11 11 12 12 12 12 13 13 13 13 13 13 13 13 13 13 13 13 13 14 14 14 14 14 14 14 14 14 14 14 14 14 14 14 14 14 14 14 14
10 10 11 10 11 11 11 12 12 12 12 12 13 13 13 12 12 13 13 13 13 13 13 13 13 13 13 14 14 14 14 14 14 14 14 14 14 14 14 14 14 14 14
10 10 10 10 10 11 11 11 11 12 12 12 12 12 12 12 12 12 12 12 13 13 13 13 13 13 13 13 13 14 14 14 14 13 13 13 13 13 14 14 14 14 14
10 10 10 10 10 10 11 11 11 11 11 12 12 12 12 12 12 12 12 12 12 13 13 13 13 13 13 13 13 13 13 13 13 13 13 13 13 13 13 13 13 13 13
9 10 10 10 10 10 10 10 11 11 11 11 11 12 12 12 12 12 12 12 12 12 12 12 12 13 13 13 13 13 13 13 13 13 13 13 13 13 13 13 13 13 13
9 9 10 10 10 10 10 10 10 10 11 11 11 11 11 12 11 12 12 12 12 12 12 12 12 12 12 13 13 13 13 13 13 13 13 13 13 13 13 13 13 13 13
9 9 9 9 10 10 10 10 10 10 10 10 11 11 11 11 11 11 12 12 12 12 12 12 12 12 12 12 12 13 13 12 13 13 13 12 12 12 13 13 13 13 13
8 9 9 9 9 9 9 9 9 10 10 10 10 10 10 11 11 11 11 11 11 11 11 12 12 12 12 12 12 12 12 12 12 12 12 12 12 12 12 12 12 13 13
8 8 8 8 8 9 9 9 9 9 9 9 10 10 10 10 10 11 11 11 11 11 11 11 11 12 11 11 11 12 12 12 12 12 12 12 12 12 12 12 12 12 12
8 8 8 8 8 8 8 8 9 9 9 9 9 9 9 10 10 10 10 10 10 11 11 11 11 11 11 11 11 11 11 11 11 12 11 11 11 11 12 12 12 12 12
7 7 7 7 7 8 8 8 8 8 8 8 8 9 9 9 9 9 10 10 10 10 10 10 11 11 11 11 11 11 11 11 11 11 11 11 11 11 11 11 11 11 11
6 7 7 7 7 7 7 7 7 8 8 8 8 8 8 8 9 9 9 9 10 10 10 10 10 10 10 10 10 10 10 10 10 10 11 11 11 11 11 11 11 11 11
6 6 6 6 6 7 7 7 7 7 7 7 7 7 8 8 8 8 8 8 9 9 9 9 9 9 10 10 9 10 10 10 10 10 10 10 10 10 10 10 10 10 10
6 6 6 6 6 6 6 6 6 6 7 6 7 7 7 7 7 7 8 8 8 8 8 9 9 9 9 9 9 9 9 9 9 10 10 10 10 10 10 10 10 10 10
5 5 5 5 5 5 6 6 6 6 6 6 6 6 6 6 7 7 7 7 7 7 8 8 8 8 8 8 8 9 9 9 9 9 9 9 9 9 9 9 9 10 10
4 5 5 5 5 5 5 5 5 5 5 5 6 6 6 6 6 6 6 6 7 7 7 7 7 7 8 8 8 8 8 8 8 9 9 9 9 9 9 9 9 9 9
4 4 4 4 4 4 5 5 5 5 5 5 5 5 5 5 5 6 6 6 6 6 6 6 6 7 7 7 7 7 8 8 8 8 8 8 8 8 8 8 8 9 9
3 4 4 4 4 4 4 4 4 4 4 4 4 5 5 5 5 5 5 5 5 5 5 5 6 6 6 6 6 7 7 7 7 7 7 7 7 7 8 8 8 8 8
3 3 3 3 3 3 3 3 4 4 4 4 4 4 4 4 4 4 4 4 5 5 5 5 5 5 5 5 6 6 6 6 7 7 7 7 7 7 7 7 7 7 7
2 2 2 2 3 3 3 3 3 3 3 3 3 3 3 3 3 3 4 4 4 4 4 4 4 4 4 4 4 5 5 5 5 6 6 6 6 6 6 6 6 6 7
2 2 2 2 2 2 2 2 2 2 2 3 3 3 3 3 3 3 3 3 3 3 3 3 3 3 3 3 3 3 3 3 4 5 5 5 5 6 6 6 6 6 6
2 2 2 2 2 2 2 2 2 2 2 2 2 2 2 2 2 2 2 2 3 3 3 2 2 2 2 3 3 3 3 3 3 3 4 5 5 5 5 5 5 5 5
1 1 1 1 1 1 1 1 1 1 1 1 1 2 2 2 2 2 2 2 2 2 2 2 2 1 2 2 2 2 2 2 2 2 2 3 4 4 4 4 5 5 5
1 1 1 1 1 1 1 1 1 1 1 1 1 1 1 1 1 1 1 1 1 1 1 1 1 1 1 1 1 1 1 1 1 1 1 2 3 3 4 4 4 4 4
Wind_Speed
3 8 6 6 7 8 9 10 11 12 12 12 13 13 13 12 12 11 11 11 11 12 12 13 13 14 15 15 15 15 15 15 15 15 15 15 14 14 15 15 14 14 15
4 6 4 5 7 7 8 10 11 11 11 12 12 12 12 12 12 12 11 11 12 12 12 13 13 14 14 15 15 15 15 15 15 15 15 14 14 14 13 13 13 13 15
4 5 4 5 7 7 8 10 10 11 11 11 12 12 12 12 11 12 12 12 12 12 13 12 13 13 14 14 14 14 14 14 14 13 13 11 11 13 12 12 12 13 14
5 5 4 6 7 8 9 9 10 10 10 11 11 11 11 11 12 12 12 12 12 12 13 12 12 13 13 13 13 13 13 13 12 12 11 10 9 11 12 12 12 12 13
7 7 6 7 8 8 9 9 10 10 10 11 11 11 11 11 12 12 12 12 12 12 12 12 12 12 12 12 13 13 12 12 12 11 10 9 9 10 11 11 11 11 12
7 9 6 8 9 9 9 10 10 9 9 10 10 10 10 11 11 12 12 12 12 12 11 11 11 11 11 12 12 12 12 11 11 10 9 8 8 9 10 11 11 11 11
7 9 9 9 9 9 10 9 9 10 10 9 9 10 10 10 11 11 11 11 11 11 10 10 10 10 10 11 11 11 11 11 10 9 8 7 7 8 9 9 10 10 11
7 9 9 8 10 10 10 10 10 10 10 9 9 9 10 10 10 10 10 10 10 10 9 9 9 9 9 10 10 10 11 10 8 7 7 6 7 7 8 9 9 9 10
8 9 10 10 9 9 9 10 10 10 10 10 10 10 10 10 10 10 9 9 10 9 9 9 9 8 8 9 9 10 10 9 8 6 6 5 6 7 7 8 8 8 8
7 8 9 10 10 9 9 9 9 10 10 10 11 11 11 10 9 9 9 9 9 9 9 9 9 8 8 8 9 9 9 8 7 6 5 5 6 6 6 6 7 7 7
5 6 7 8 9 10 8 8 8 9 10 10 10 10 10 9 8 8 8 9 9 9 9 9 9 9 8 8 8 8 8 6 6 5 4 4 5 5 5 5 5 5 6
2 3 5 6 7 8 8 7 7 7 8 9 9 9 8 8 8 7 8 8 8 8 8 9 9 9 8 7 7 7 6 6 5 4 4 4 4 4 5 5 5 4 4
1 2 3 4 6 7 7 6 6 6 7 8 8 8 8 8 7 7 7 7 7 7 7 7 8 7 6 6 5 5 5 5 4 4 3 4 4 3 4 4 4 4 4
0 1 1 3 4 5 5 5 6 6 6 6 6 7 7 6 6 6 6 6 6 6 6 6 6 6 6 5 4 4 4 3 3 3 3 3 3 3 3 3 3 3 3
1 1 0 1 2 3 4 4 5 4 4 4 5 6 6 5 5 5 5 5 6 5 5 5 5 5 5 4 3 3 2 3 2 2 2 2 2 3 3 3 2 2 1
2 2 1 0 1 2 3 3 3 3 3 3 4 4 5 4 4 4 4 5 5 5 4 4 4 4 3 3 2 2 2 2 2 2 2 1 1 2 2 2 2 2 2
3 2 2 2 1 2 2 1 2 3 2 3 2 3 3 4 3 3 3 4 4 4 4 4 4 4 3 3 2 2 2 2 2 2 1 1 1 2 2 1 1 2 2
3 3 4 2 1 1 1 1 1 2 2 2 1 2 2 3 3 3 3 3 4 4 3 3 3 2 2 2 2 2 2 2 1 1 1 1 1 1 1 2 2 2 2
5 4 4 3 3 2 1 1 1 1 1 1 1 1 1 2 2 2 2 3 3 4 3 3 2 2 2 2 2 2 1 1 1 1 1 1 1 1 1 2 2 2 2
4 4 4 3 3 2 1 1 1 0 1 1 1 1 1 1 1 1 2 2 3 2 3 2 2 2 2 2 2 2 2 2 1 0 0 1 1 1 1 2 2 3 3
3 4 5 4 4 3 2 2 2 2 1 1 0 0 0 0 0 1 1 2 2 1 1 2 2 2 2 2 1 2 2 1 1 1 0 1 1 1 2 2 2 3 3
5 5 5 5 4 4 3 2 2 2 2 2 2 1 1 0 0 0 1 1 1 1 1 1 2 1 1 2 1 0 1 2 1 1 1 1 0 2 2 2 2 3 3
6 6 6 6 5 5 4 2 1 1 1 1 2 1 1 1 1 1 1 1 0 0 1 1 1 1 1 1 1 0 0 2 2 2 1 1 0 0 1 3 3 4 4
6 5 5 5 6 5 5 4 4 4 4 3 3 2 2 1 2 2 2 1 1 1 1 2 1 1 1 1 1 1 1 1 1 2 2 1 1 1 2 3 4 4 4
4 4 4 4 6 5 5 6 5 4 4 2 2 3 3 2 2 3 2 2 2 1 1 1 1 1 1 2 1 1 1 1 2 2 3 3 2 2 2 3 3 4 4
3 3 3 4 5 5 5 6 6 6 5 4 4 4 3 3 2 3 3 2 2 2 2 2 2 2 2 2 2 2 2 1 2 2 3 3 4 3 3 3 3 3 4
Wind_Direction
313 326 335 16 35 45 49 52 54 56 56 59 59 61 63 63 64 65 65 69 73 76 77 79 77 77 79 81 80 79 78 77 76 74 73 75 78 83 84 83 82 84 88
305 327 345 30 46 50 54 55 57 59 58 59 60 61 62 63 62 63 65 67 69 75 77 78 78 78 80 80 79 79 78 76 75 73 71 72 76 82 84 85 85 88 90
354 349 357 53 55 57 60 60 62 63 61 60 60 61 62 62 61 63 64 65 67 70 74 75 77 77 79 80 78 77 77 76 74 71 70 68 75 80 84 86 88 91 90
16 16 15 67 65 63 63 63 64 65 63 61 60 60 61 61 62 64 65 63 64 67 70 72 76 77 78 80 78 75 75 75 73 68 65 64 71 82 82 84 87 91 92
30 27 32 72 69 66 63 63 65 64 64 62 60 59 59 61 63 63 65 64 64 67 69 70 71 75 77 78 78 75 74 75 70 65 62 64 68 80 82 82 83 89 93
36 32 41 72 69 65 65 63 62 63 65 64 61 59 59 59 61 62 63 65 65 65 66 67 69 73 76 75 76 75 74 74 72 65 63 65 67 77 81 80 81 87 93
39 37 42 67 70 66 62 61 63 61 62 64 63 62 60 59 60 61 61 64 65 64 63 65 65 70 76 75 75 74 73 75 71 63 61 64 70 78 81 80 80 85 89
50 44 47 59 67 66 63 59 58 60 59 59 61 63 62 60 62 61 61 63 65 64 64 63 65 65 74 74 73 76 76 73 68 59 56 63 70 78 83 82 82 85 90
53 48 43 48 59 62 61 59 58 57 58 59 59 60 61 62 60 60 59 61 61 60 62 61 65 65 69 71 73 76 76 70 64 56 58 65 68 76 83 84 83 84 89
50 47 42 44 48 51 57 57 58 58 57 58 57 54 56 59 59 58 56 58 59 59 59 60 63 66 68 68 71 72 73 68 58 54 56 63 65 68 78 84 86 86 89
45 39 40 43 44 45 53 56 58 57 55 55 55 53 54 54 57 56 54 56 57 58 56 56 59 62 69 67 69 69 67 60 53 50 53 56 57 61 68 76 87 92 95
28 33 38 43 43 44 45 51 55 57 55 55 53 52 53 53 55 54 54 54 54 55 55 53 56 56 60 60 61 66 59 53 55 44 46 48 53 58 63 68 73 93 104
336 26 36 49 48 48 43 43 48 55 54 52 52 50 53 55 52 51 51 48 47 49 49 48 48 48 53 54 50 55 53 54 50 38 27 34 44 47 56 65 67 74 92
27 11 21 47 55 55 52 47 44 47 48 44 47 51 54 48 42 38 41 39 42 41 41 43 43 39 45 51 53 49 46 47 41 34 25 28 35 37 45 57 64 67 75
235 271 296 53 72 66 63 52 45 42 45 49 54 54 57 52 40 33 32 37 37 36 36 34 34 30 34 40 41 43 35 32 29 22 9 12 22 24 34 41 41 41 56
230 251 224 149 105 88 77 60 51 37 42 55 55 56 62 60 49 38 31 28 29 30 27 26 26 18 14 22 10 13 20 22 14 12 4 346 338 353 5 13 18 16 19
222 242 226 194 131 117 105 83 56 38 44 49 47 68 65 62 57 43 36 26 15 16 25 27 24 24 17 13 345 345 4 359 355 350 0 4 334 329 342 334 333 331 346
217 229 231 208 167 162 141 108 69 45 37 46 55 75 72 63 64 55 38 19 8 14 24 19 16 11 4 355 325 317 339 337 320 331 8 16 18 349 331 334 336 336 332
221 221 226 205 186 188 176 127 92 74 45 25 66 60 63 70 69 57 32 12 24 19 16 14 13 349 340 337 310 295 303 310 311 343 8 13 19 23 2 336 335 337 330
227 222 221 215 199 184 163 127 114 80 14 358 45 53 56 78 66 47 22 15 29 25 11 7 354 347 316 306 307 303 284 279 312 347 297 6 359 353 350 340 324 315 306
228 224 214 213 204 181 179 193 197 223 234 266 255 122 92 32 34 35 15 10 24 23 350 353 347 342 345 340 355 330 312 273 248 228 9 25 3 341 331 316 315 312 301
222 224 221 214 211 197 196 199 203 205 207 236 232 196 167 24 319 357 19 334 6 15 350 350 7 352 337 6 14 2 309 309 294 271 242 213 6 4 348 320 309 298 301
229 223 227 221 220 204 192 185 184 180 212 235 230 209 254 266 262 247 248 278 335 146 248 289 328 325 280 311 16 91 198 249 289 272 242 224 249 321 338 322 307 308 299
234 230 228 226 222 205 185 186 196 205 220 231 233 224 255 261 249 252 244 228 226 223 240 258 329 276 223 244 286 309 251 234 244 284 274 239 258 264 279 316 309 298 293
233 230 230 232 217 201 191 194 196 211 221 219 230 220 226 243 246 245 233 224 214 227 234 256 283 265 239 233 238 277 276 289 244 245 260 276 291 259 265 282 285 285 282
239 230 227 235 218 202 198 200 198 203 212 212 229 227 220 223 235 243 237 229 226 230 234 239 248 244 243 247 242 233 225 222 246 263 259 275 283 283 286 274 267 275 278
Height
1531 1532 1533 1533 1534 1535 1535 1535 1535 1536 1536 1536 1536 1536 1536 1536 1536 1536 1536 1536 1537 1537 1537 1538 1538 1538 1538 1538 1539 1539 1539 1540 1540 1540 1540 1541 1542 1542 1542 1543 1543 1543 1544
1530 1532 1532 1533 1534 1535 1535 1535 1536 1536 1536 1536 1536 1536 1536 1537 1537 1537 1537 1537 1538 1538 1538 1538 1539 1539 1539 1539 1540 1540 1540 1541 1541 1541 1542 1542 1543 1544 1544 1544 1545 1545 1546
1530 1531 1532 1533 1534 1534 1535 1535 1535 1536 1536 1536 1536 1536 1537 1537 1537 1537 1537 1538 1538 1538 1539 1539 1539 1539 1540 1540 1540 1541 1541 1542 1542 1543 1543 1544 1544 1545 1545 1546 1546 1547 1547
1530 1530 1531 1533 1533 1534 1534 1535 1535 1535 1536 1536 1536 1536 1537 1537 1537 1537 1538 1538 1539 1539 1539 1539 1540 1540 1540 1541 1541 1542 1542 1543 1543 1544 1544 1545 1545 1546 1547 1547 1548 1548 1549
1530 1530 1531 1532 1533 1533 1534 1534 1535 1535 1535 1536 1536 1536 1536 1537 1537 1537 1538 1538 1539 1539 1539 1539 1540 1540 1541 1541 1542 1542 1543 1543 1544 1545 1545 1546 1547 1547 1548 1548 1549 1549 1550
1529 1530 1531 1532 1532 1533 1534 1534 1534 1535 1535 1535 1535 1536 1536 1536 1537 1537 1537 1538 1538 1539 1539 1540 1540 1541 1541 1542 1542 1543 1543 1544 1545 1545 1546 1547 1547 1548 1549 1549 1550 1550 1551
1529 1530 1530 1531 1532 1532 1533 1533 1534 1534 1534 1535 1535 1535 1535 1536 1536 1536 1537 1538 1538 1539 1539 1539 1540 1541 1541 1542 1542 1543 1544 1544 1545 1546 1547 1547 1548 1549 1549 1550 1550 1551 1551
1529 1529 1530 1531 1531 1531 1532 1533 1533 1533 1533 1534 1534 1534 1535 1535 1535 1536 1536 1537 1538 1538 1539 1539 1540 1540 1541 1542 1542 1543 1544 1544 1545 1546 1547 1548 1548 1549 1549 1550 1551 1552 1552
1528 1529 1529 1530 1530 1531 1531 1532 1532 1533 1533 1533 1533 1534 1534 1534 1535 1535 1536 1536 1537 1538 1538 1539 1539 1540 1541 1542 1542 1543 1544 1544 1545 1546 1547 1548 1548 1549 1549 1550 1551 1552 1552
1528 1528 1528 1529 1529 1530 1531 1531 1531 1532 1532 1532 1532 1532 1533 1533 1534 1534 1534 1535 1536 1537 1537 1538 1539 1539 1540 1541 1542 1542 1543 1544 1545 1546 1546 1547 1548 1549 1549 1550 1551 1552 1552
1526 1527 1527 1528 1528 1529 1529 1530 1531 1531 1531 1531 1532 1532 1532 1532 1533 1533 1533 1534 1535 1535 1536 1537 1538 1539 1539 1540 1541 1542 1543 1543 1544 1545 1546 1547 1548 1548 1549 1550 1551 1551 1552
1524 1525 1526 1527 1527 1528 1528 1529 1529 1530 1530 1530 1531 1531 1531 1531 1531 1532 1533 1533 1533 1534 1535 1536 1536 1537 1538 1539 1540 1541 1541 1542 1543 1544 1545 1546 1547 1547 1548 1549 1550 1551 1552
1523 1524 1524 1525 1526 1527 1527 1528 1528 1529 1529 1529 1530 1530 1530 1530 1530 1531 1531 1532 1532 1533 1534 1534 1535 1536 1537 1538 1538 1539 1540 1541 1542 1543 1544 1545 1545 1546 1547 1548 1548 1549 1550
1521 1522 1523 1524 1524 1525 1526 1526 1527 1527 1527 1528 1528 1529 1529 1529 1529 1530 1530 1531 1531 1531 1532 1533 1533 1534 1535 1536 1537 1538 1539 1540 1540 1541 1542 1543 1544 1545 1546 1546 1547 1548 1549
1519 1520 1521 1522 1523 1523 1524 1524 1525 1526 1526 1526 1527 1527 1527 1527 1528 1528 1529 1529 1529 1530 1530 1531 1532 1533 1534 1535 1535 1536 1537 1538 1539 1539 1540 1541 1542 1543 1544 1544 1545 1546 1547
1516 1517 1519 1519 1520 1521 1522 1523 1523 1524 1524 1525 1525 1525 1526 1526 1526 1526 1527 1527 1528 1528 1528 1529 1530 1530 1531 1532 1533 1534 1535 1536 1537 1537 1538 1539 1540 1541 1542 1542 1543 1544 1545
1514 1515 1516 1517 1518 1518 1519 1520 1521 1521 1522 1523 1523 1524 1524 1524 1524 1525 1525 1525 1526 1526 1527 1527 1528 1528 1529 1530 1531 1532 1533 1534 1535 1535 1536 1537 1538 1539 1540 1540 1541 1542 1542
1511 1512 1513 1514 1514 1515 1516 1517 1518 1519 1520 1521 1521 1521 1522 1522 1522 1522 1523 1523 1523 1524 1524 1525 1525 1526 1526 1527 1528 1529 1530 1531 1532 1533 1534 1534 1535 1536 1537 1538 1538 1539 1540
1507 1508 1509 1510 1511 1512 1513 1514 1515 1516 1517 1518 1518 1519 1519 1519 1520 1520 1520 1521 1521 1521 1522 1522 1522 1523 1523 1524 1525 1526 1527 1528 1529 1530 1531 1532 1532 1533 1534 1535 1535 1536 1537
1503 1504 1505 1507 1507 1508 1509 1510 1511 1513 1513 1514 1515 1515 1516 1517 1517 1518 1518 1518 1518 1518 1519 1519 1520 1520 1520 1521 1522 1523 1524 1525 1525 1526 1527 1528 1529 1530 1531 1531 1532 1533 1533
1499 1500 1501 1502 1503 1504 1505 1506 1507 1508 1509 1510 1511 1512 1513 1514 1514 1514 1515 1515 1515 1515 1515 1516 1517 1517 1518 1518 1518 1518 1520 1521 1521 1523 1524 1525 1526 1527 1527 1528 1529 1529 1530
1494 1495 1496 1497 1499 1500 1501 1502 1503 1504 1505 1506 1507 1508 1509 1510 1511 1511 1512 1512 1512 1512 1513 1513 1514 1514 1514 1515 1515 1515 1515 1517 1517 1518 1519 1520 1522 1523 1524 1524 1525 1526 1526
1489 1490 1491 1492 1494 1495 1497 1498 1499 1500 1501 1502 1503 1504 1505 1506 1507 1508 1508 1509 1509 1509 1510 1510 1511 1511 1511 1512 1513 1514 1513 1512 1513 1513 1514 1516 1517 1518 1520 1521 1521 1522 1522
1484 1485 1487 1488 1489 1491 1492 1493 1494 1495 1495 1497 1499 1500 1501 1502 1503 1504 1505 1505 1506 1506 1507 1507 1508 1508 1509 1509 1510 1510 1512 1511 1510 1508 1510 1511 1513 1514 1515 1516 1517 1518 1518
1479 1480 1482 1483 1484 1485 1487 1489 1490 1490 1491 1493 1495 1496 1496 1497 1499 1500 1501 1501 1501 1502 1503 1504 1504 1505 1505 1506 1506 1506 1507 1508 1507 1507 1505 1506 1508 1509 1510 1511 1512 1513 1514
1474 1475 1477 1477 1478 1480 1482 1483 1485 1485 1487 1488 1489 1491 1491 1493 1494 1495 1496 1497 1497 1498 1499 1499 1500 1501 1501 1502 1503 1503 1503 1504 1504 1504 1502 1501 1502 1503 1505 1506 1507 1508 1508